Lawrence, MA

7:06 AM EST on November 13, 2019 (GMT -0500)
Lawrence Municipal

Weather History for KLWM - August, 2019

Change the Weather History Date:

Friday, August 30, 2019

  Actual Average Record
Temperature  
Mean Temperature 70 °F -  
Max Temperature 84 °F 79 °F 96 °F (1953)
Min Temperature 57 °F 58 °F 42 °F (1965)
Cooling Degree Days 6    
Growing Degree Days 20 (Base 50)    
Moisture  
Dew Point 58 °F    
Average Humidity 64    
Maximum Humidity 87    
Minimum Humidity 45    
Precipitation  
Precipitation 0.00 in - - ()
Sea Level Pressure  
Sea Level Pressure 29.97 in    
Wind  
Wind Speed 7 mph (SW)    
Max Wind Speed 15 mph    
Max Gust Speed 28 mph    
Visibility 10 miles    
Events      
Averages and records for this station are not official NWS values.
T = Trace of Precipitation, MM = Missing Value Source: NWS Daily Summary

Daily Weather History Graph

Daily Weather History Graph

Search for Another Location

Airport or City:

Astronomy

Aug. 30, 2019 Rise Set
Actual Time 6:06 AM EDT 7:22 PM EDT
Civil Twilight 5:37 AM EDT 7:51 PM EDT
Nautical Twilight 5:02 AM EDT 8:26 PM EDT
Astronomical Twilight 4:25 AM EDT 9:03 PM EDT
Moon 6:02 AM EDT (8/30) 7:57 PM EDT (8/30)
Length of Visible Light 14h 14m
Length of Day
13h 15m
New Moon, 0% of the Moon is Illuminated
Aug 30
New Moon
Sep 5
First Quarter
Sep 14
Full
Sep 21
Last Quarter
Sep 28
New

Hourly Weather History & Observations

Time (EDT) Temp. Heat Index Dew Point Humidity Pressure Visibility Wind Dir Wind Speed Gust Speed Precip Events Conditions
12:54 AM 63.0 °F - 55.9 °F 78% 29.95 in 10.0 mi SW 4.6 mph - N/A   Clear
1:54 AM 62.1 °F - 55.9 °F 80% 29.94 in 10.0 mi SSW 3.5 mph - N/A   Clear
2:54 AM 61.0 °F - 55.9 °F 83% 29.95 in 10.0 mi SSW 5.8 mph - N/A   Clear
3:54 AM 60.1 °F - 55.0 °F 83% 29.96 in 10.0 mi SSW 5.8 mph - N/A   Clear
4:54 AM 59.0 °F - 55.0 °F 87% 29.97 in 10.0 mi South 4.6 mph - N/A   Clear
5:54 AM 57.9 °F - 54.0 °F 87% 29.98 in 10.0 mi South 3.5 mph - N/A   Clear
6:54 AM 59.0 °F - 55.0 °F 87% 29.99 in 10.0 mi South 4.6 mph - N/A   Clear
7:54 AM 63.0 °F - 55.9 °F 78% 30.00 in 10.0 mi Variable 4.6 mph - N/A   Clear
8:54 AM 69.1 °F - 57.9 °F 68% 29.99 in 10.0 mi SSW 9.2 mph - N/A   Clear
9:54 AM 73.9 °F - 57.9 °F 57% 29.98 in 10.0 mi SW 9.2 mph - N/A   Clear
10:54 AM 77.0 °F - 57.9 °F 52% 29.97 in 10.0 mi SW 15.0 mph - N/A   Clear
11:54 AM 79.0 °F - 57.9 °F 48% 29.96 in 10.0 mi SW 10.4 mph 27.6 mph N/A   Clear
12:54 PM 81.0 °F 81.1 °F 57.9 °F 45% 29.94 in 10.0 mi SW 11.5 mph 18.4 mph N/A   Clear
1:54 PM 82.0 °F 82.7 °F 61.0 °F 49% 29.93 in 10.0 mi SW 15.0 mph 21.9 mph N/A   Clear
2:54 PM 84.0 °F 84.4 °F 61.0 °F 46% 29.93 in 10.0 mi SW 13.8 mph 25.3 mph N/A   Clear
3:54 PM 82.9 °F 84.0 °F 63.0 °F 51% 29.93 in 10.0 mi WSW 15.0 mph 24.2 mph N/A   Scattered Clouds
4:54 PM 82.0 °F 83.1 °F 63.0 °F 52% 29.94 in 10.0 mi West 13.8 mph 18.4 mph N/A   Clear
5:54 PM 81.0 °F 82.2 °F 63.0 °F 54% 29.95 in 10.0 mi West 6.9 mph 16.1 mph N/A   Clear
6:54 PM 79.0 °F - 63.0 °F 58% 29.96 in 10.0 mi West 8.1 mph - N/A   Clear
7:54 PM 75.9 °F - 61.0 °F 60% 29.99 in 10.0 mi West 6.9 mph - N/A   Clear
8:54 PM 73.9 °F - 61.0 °F 64% 30.01 in 10.0 mi SW 5.8 mph - N/A   Clear
9:54 PM 73.0 °F - 59.0 °F 61% 30.03 in 10.0 mi WNW 5.8 mph - N/A   Clear
10:54 PM 73.0 °F - 51.1 °F 46% 30.05 in 10.0 mi West 5.8 mph - N/A   Clear
11:54 PM 70.0 °F - 52.0 °F 53% 30.08 in 10.0 mi West 3.5 mph - N/A   Clear